This is the latest recevied weather packets stored in our database for station/object N9BSW. If no packets are shown the sender has not sent any weather packets the latest 10 day(s).
| Time | Temp. | Humidity | Pressure | Rain* | Wind** | Luminosity | Snow |
|---|---|---|---|---|---|---|---|
| 1777854343 | 15° C | 53% | 1011.2 hPa | 0 mm | - | 10 W/m² | - |
| 1777854041 | 15° C | 52% | 1011 hPa | 0 mm | - | 14 W/m² | - |
| 1777853738 | 15° C | 52% | 1011.4 hPa | 0 mm | - | 18 W/m² | - |
| 1777853434 | 15° C | 52% | 1011.1 hPa | 0 mm | - | 18 W/m² | - |
| 1777853131 | 15° C | 52% | 1011.2 hPa | 0 mm | - | 17 W/m² | - |
| 1777852829 | 15° C | 52% | 1011.2 hPa | 0 mm | - | 18 W/m² | - |
| 1777852527 | 15° C | 52% | 1011.2 hPa | 0 mm | - | 18 W/m² | - |
| 1777852223 | 15° C | 53% | 1011.3 hPa | 0 mm | - | 21 W/m² | - |
| 1777851921 | 15° C | 53% | 1011.4 hPa | 0 mm | - | 32 W/m² | - |
| 1777851619 | 15° C | 53% | 1011.5 hPa | 0 mm | - | 53 W/m² | - |
| 1777851315 | 15° C | 53% | 1011.4 hPa | 0 mm | - | 33 W/m² | - |
| 1777851011 | 15° C | 52% | 1011.8 hPa | 0 mm | - | 38 W/m² | - |
| 1777850709 | 15° C | 54% | 1011.7 hPa | 0 mm | - | 41 W/m² | - |
| 1777850406 | 15.56° C | 52% | 1011.6 hPa | 0 mm | - | 39 W/m² | - |
| 1777850104 | 15.56° C | 55% | 1011.5 hPa | 0 mm | - | 48 W/m² | - |
| 1777849800 | 15.56° C | 49% | 1011.4 hPa | 0 mm | - | 74 W/m² | - |
| 1777849497 | 15.56° C | 47% | 1011.5 hPa | 0 mm | - | 59 W/m² | - |
| 1777849194 | 15.56° C | 46% | 1011.6 hPa | 0 mm | - | 38 W/m² | - |
| 1777848891 | 16.11° C | 45% | 1011.4 hPa | 0 mm | - | 31 W/m² | - |
| 1777848586 | 16.11° C | 46% | 1011.4 hPa | 0 mm | - | 35 W/m² | - |
| 1777848283 | 16.11° C | 45% | 1011.2 hPa | 0 mm | - | 61 W/m² | - |
| 1777847981 | 16.67° C | 44% | 1011.7 hPa | 0 mm | - | 98 W/m² | - |
| 1777847679 | 17.22° C | 43% | 1012 hPa | 0 mm | - | 133 W/m² | - |
| 1777847374 | 17.78° C | 41% | 1011.9 hPa | 0 mm | - | 155 W/m² | - |
| 1777847073 | 16.67° C | 44% | 1011.8 hPa | 0 mm | - | 229 W/m² | - |
* Rain latest hour (hover to see other rain measurements)
** Current wind speed in m/s (hover to see current wind gust speed)